SES-18

Last updated on Sun Jun 21 2026 00:03:09 GMT+0000 (Coordinated Universal Time)

1 55970U 23038A 26171.37161705 -.00000106 00000+0 00000+0 0 9995 2 55970 0.0112 310.7634 0000075 250.1603 98.3356 1.00271692 12134
UTC large
Height (km)
Speed (km/s)
/
Latitude / Longitude
Inclination (degrees)
Orbital Period (minutes)
Azimuth
Elevation
Range (km)
Doppler Factor

Next 0 passes for location: London (51.5072 / 0.1276)

No passes found over London.
SES-18